Location: Newark
(39.6867°N, 100.6772°W)
Time: 08:21:05
(UTC+00:00)

Vanguard 1 Rocket - Pass Details

Date: 28 October 2019
Orbit: 651 x 4225 km, 34.3° (Epoch: 13 November)

Event Time Altitude Azimuth Distance (km) Brightness Sun altitude
Rises 22:35:23 0° 282° (WNW) 7,249 12.8 11.7°
Reaches altitude 10° 22:40:53 10° 273° (W) 6,652 13.0 10.8°
Maximum altitude 22:58:43 29° 224° (SW) 5,910 12.8 7.7°
Drops below altitude 10° 23:18:02 10° 174° (S) 7,058 12.2 4.2°
Sets 23:24:23 0° 164° (SSE) 7,720 12.2 3.1°
